Location: Waning Moon II Observatory
(30.3730°N, 89.7620°W)
Time: 00:15:18
(UTC-05:00)

Daily predictions for brighter satellites

Satellite Brightness Start Highest point End
(mag) Time Altitude Azimuth Time Altitude Azimuth Time Altitude Azimuth
Milstar 3 4.4 03:47:20 66° WSW 03:50:14 78° S 04:16:07 10° ESE
ADEOS II 4.1 03:54:18 10° NE 03:58:21 22° E 03:59:01 22° ESE
Cosmos 2219 Rocket 3.4 04:02:20 38° ENE 04:02:20 38° ENE 04:06:01 10° NNE
Cosmos 1844 Rocket 4.1 04:06:14 10° N 04:11:15 34° ENE 04:16:14 10° SE
COSMOS 2428 4.0 04:17:41 32° N 04:17:41 32° N 04:20:42 10° NNE
Cosmos 2360 Rocket 4.4 04:24:08 14° NNW 04:24:08 14° NNW 04:25:08 10° N
Okean O Rocket 3.2 04:19:58 10° NNE 04:22:50 34° NE 04:22:50 34° NE
Meteosat 1 Rocket2 4.2 04:25:11 72° S 04:25:11 72° S 04:34:26 10° ESE
Cosmos 2237 Rocket 2.7 04:32:19 52° SE 04:33:03 56° ESE 04:38:36 10° NNE
ATLAS 5 CENTAUR R/B 4.4 04:29:25 10° N 04:34:35 27° NE 04:40:01 10° ESE
Tiangong 2 4.1 04:44:48 15° E 04:44:48 15° E 04:45:28 10° E
Cosmos 1666 4.2 04:41:18 10° NNE 04:44:54 36° E 04:46:03 29° ESE
Cosmos 2285 Rocket 3.9 04:45:57 54° SSW 04:47:33 88° ESE 04:54:00 10° NNE
Cosmos 405 Rocket 4.1 04:48:45 34° SE 04:49:37 39° E 04:53:22 10° NNE
Meteor 2-4 Rocket 3.7 04:49:04 41° S 04:51:03 75° E 04:56:30 10° NNE
Meteor 1-19 Rocket 4.0 04:52:19 71° WSW 04:52:34 73° W 04:58:17 10° N
PSLV R/B 3.6 04:51:08 10° NNE 04:55:30 77° ESE 04:55:36 76° ESE
FUSE 4.5 04:56:13 43° S 04:56:15 44° S 05:01:21 10° ESE
Cosmos 962 Rocket 4.5 04:55:36 10° N 05:01:56 85° E 05:08:18 10° S
Cosmos 2333 Rocket 2.3 05:01:47 54° W 05:02:04 55° WNW 05:07:41 10° N
GPS 2-04 Rocket1 3.3 05:02:49 48° N 05:02:49 48° N 05:06:24 10° ENE
Cosmos 1814 Rocket 3.8 05:04:23 58° SW 05:05:23 77° WNW 05:10:33 10° NNE
Meteor PRIRODA 4.4 05:04:41 10° NNE 05:08:22 51° E 05:10:04 28° SSE
IRS-1C Rocket 4.0 05:03:26 10° N 05:08:38 65° WNW 05:09:54 49° SW
VEP-3 4.0 05:03:13 29° WSW 05:11:13 55° S 05:17:20 10° E
Abrixas rocket 4.3 05:12:17 20° SSE 05:12:55 21° SE 05:15:26 10° E
Aureole 2 Rocket 3.9 05:14:51 26° NNW 05:14:51 26° NNW 05:16:36 10° N
PAYLOAD B 4.3 05:08:38 10° N 05:14:07 57° WNW 05:15:58 39° SW
OTV 4 2.2 05:16:08 26° NNE 05:16:08 26° NNE 05:17:48 10° NE
Okean 1-7 Rocket 3.6 05:15:39 54° W 05:15:43 54° W 05:20:07 10° N
GOES 2 Rocket 3.3 05:17:38 49° SW 05:18:26 57° S 05:23:42 10° ESE
USA 229 DEB 4.4 05:17:12 30° WNW 05:18:39 33° NW 05:24:48 10° N
USA 229 4.4 05:17:17 30° WNW 05:18:45 33° NW 05:24:54 10° N
EO 1 Del DPAF 3.1 05:16:45 12° S 05:20:13 75° WSW 05:24:05 10° NNW
Cosmos 2298 Rocket 4.1 05:16:00 10° NNW 05:21:20 78° ENE 05:26:39 10° SSE
Cosmos 2154 Rocket 4.2 05:17:35 10° NNW 05:23:23 43° W 05:29:12 10° SSW
Meteor 1-31 Rocket 3.2 05:19:56 10° NNE 05:23:41 59° E 05:27:27 10° S
ERS-2 2.2 05:22:48 10° NNE 05:26:30 76° ESE 05:29:12 18° S
Iridium 2 4.1 05:23:38 10° N 05:27:25 63° E 05:31:14 10° SSE
Cosmos 1844 3.7 05:24:00 10° NNW 05:29:37 60° WSW 05:35:10 10° S
NOSS 3-1 (A) 3.2 05:26:56 22° SSW 05:30:48 86° WNW 05:37:00 10° NNE
NOSS 3-1 (C) 3.4 05:28:53 29° SW 05:31:43 59° WNW 05:37:50 10° NNE
SL-16 R/B 2.3 05:26:13 10° SSW 05:31:50 76° ESE 05:37:30 10° NNE
Hubble Space Telescope 0.8 05:31:23 41° WSW 05:32:38 65° S 05:36:44 10° E
Okean 2 3.4 05:33:04 24° SSW 05:35:21 56° W 05:39:28 10° N
Cosmos 1025 Rocket 3.5 05:34:22 34° WSW 05:35:23 39° W 05:39:31 10° NNW
SL-8 Rocket 3.9 05:30:58 10° N 05:37:11 82° W 05:43:19 10° S
CZ-4B R/B 3.8 05:32:21 10° N 05:37:27 37° WNW 05:40:08 23° WSW
ADEOS II 2.8 05:33:22 10° N 05:38:02 33° WNW 05:39:58 25° WSW
Cosmos 2181 Rocket 4.5 05:36:49 20° SW 05:40:35 38° W 05:46:24 10° NNW
Feng Yun 1-1 Rocket 4.3 05:37:45 10° NNE 05:43:34 87° WNW 05:49:10 10° SSW
Cosmos 2219 Rocket 3.7 05:44:05 17° WNW 05:44:49 17° WNW 05:48:25 10° NNW
Cosmos 371 Rocket 3.4 05:42:49 16° SSW 05:46:36 54° WNW 05:51:23 10° N
Cosmos 990 Rocket 3.9 05:42:30 10° NNW 05:47:41 90° WSW 05:52:48 10° SSE
Cosmos 1437 3.8 05:48:39 26° WNW 05:48:39 26° WNW 05:51:22 10° NNW
USA 116 4.0 05:46:37 10° S 05:50:48 84° WSW 05:55:35 10° NNW
Cosmos 332 Rocket 4.5 05:49:07 20° WSW 05:51:53 35° WNW 05:56:22 10° N
Cosmos 1726 Rocket 3.5 05:47:33 10° N 05:52:01 84° W 05:56:28 10° S
Cosmos 1844 Rocket 3.6 05:50:30 10° NW 05:54:52 24° WSW 05:59:12 10° SSW
Cosmos 1867 3.6 05:50:01 10° NW 05:55:22 59° WSW 06:00:39 10° SSE
CZ-4B R/B 4.3 05:52:01 10° N 05:56:24 53° WNW 06:00:40 10° SSW
Cosmos 1892 Rocket 3.8 05:54:38 10° SSW 05:58:46 43° W 06:02:57 10° N
Okean O Rocket 3.5 05:58:25 10° NW 06:00:10 12° WNW 06:00:19 12° WNW
Thor Agena Rocket 3.6 05:58:04 10° SSE 06:03:07 80° ENE 06:08:09 10° N
OAO 3 Copernicus 4.4 05:58:43 12° WNW 06:03:21 80° NNE 06:08:23 10° ESE
Cosmos 1898 Rocket 4.2 05:59:50 10° NW 06:04:21 31° W 06:08:50 10° SSW
Cosmos 2150 Rocket 4.4 06:02:32 10° NNW 06:07:30 41° W 06:12:32 10° S
Radarsat Rocket 4.0 06:02:40 10° NNE 06:08:30 86° ESE 06:14:28 10° SSW
BREEZE M DEB (TANK) 3.9 06:03:51 10° NW 06:10:14 37° NNE 06:12:57 10° E
Cosmos 2218 Rocket 4.2 06:04:12 10° NNW 06:10:19 51° W 06:16:21 10° SSW
Ariane Rocket 4.4 06:07:46 10° NNE 06:12:32 42° E 06:17:17 10° S
Cosmos 1515 4.4 06:10:55 10° SW 06:14:22 32° W 06:17:50 10° NNW
Cosmos 1441 Rocket 4.1 06:11:47 10° SW 06:15:19 31° WNW 06:18:53 10° NNW
Cosmos 2237 Rocket 3.8 06:14:12 11° W 06:17:25 16° WNW 06:20:53 10° NNW
Cosmos 1626 Rocket 3.6 06:13:38 10° S 06:18:05 87° W 06:22:34 10° N
Cosmos 2278 Rocket 2.6 06:13:30 10° NW 06:18:44 40° WSW 06:23:57 10° S
Tiangong 2 2.7 06:16:57 11° W 06:18:55 18° SW 06:21:11 10° S
OAO 3 Rocket 3.9 06:14:40 10° SW 06:19:10 46° SSE 06:23:38 10° E
ATLAS 5 CENTAUR R/B 2.8 06:13:28 10° NW 06:19:28 47° WSW 06:25:46 10° S
Okean-O 3.5 06:16:04 10° NNW 06:19:52 28° WNW 06:23:39 10° SW
SL-8 R/B 4.0 06:21:38 10° NW 06:26:24 72° NE 06:31:09 10° SE
Cosmos 1602 Rocket 3.5 06:22:02 10° SSW 06:26:25 72° W 06:30:52 10° N
Cosmos 1937 Rocket 4.4 06:24:19 10° NW 06:28:40 26° W 06:32:59 10° SSW
